McCook, NE

4:57 PM CST on November 24, 2017 (GMT -0600)
McCook Municipal

Weather History for KMCK - February, 2013

Change the Weather History Date:

Friday, February 8, 2013

  Actual Average Record
Temperature  
Mean Temperature 40 °F 29 °F  
Max Temperature 56 °F 43 °F 75 °F (1954)
Min Temperature 23 °F 16 °F -26 °F (1933)
Degree Days  
Heating Degree Days 24    
Moisture  
Dew Point 22 °F    
Average Humidity 52    
Maximum Humidity 78    
Minimum Humidity 28    
Precipitation  
Precipitation 0.00 in 0.02 in 0.50 in (1980)
Month to date precipitation T 0.15  
Year to date precipitation 0.05 0.66  
Sea Level Pressure  
Sea Level Pressure 30.06 in    
Wind  
Wind Speed 11 mph (SSE)    
Max Wind Speed 31 mph    
Max Gust Speed 40 mph    
Visibility 10 miles    
Events      
T = Trace of Precipitation, MM = Missing Value Source: NWS Daily Summary

Daily Weather History Graph

Daily Weather History Graph

Search for Another Location

Airport or City:

Trip Planner

Search our weather history database for the weather conditions in past years. The results will help you decide how hot, cold, wet, or windy it might be!

Date:

Astronomy

Feb. 08, 2013 Rise Set
Actual Time 7:43 AM CST 6:09 PM CST
Civil Twilight 7:15 AM CST 6:38 PM CST
Nautical Twilight 6:43 AM CST 7:10 PM CST
Astronomical Twilight 6:11 AM CST 7:42 PM CST
Moon 6:13 AM CST (2/8) 4:45 PM CST (2/8)
Length of Visible Light 11h 22m
Length of Day
10h 26m
Waning Crescent, 3% of the Moon is Illuminated
Feb 8
Waning Crescent
Feb 10
New
Feb 17
First Quarter
Feb 25
Full
Mar 4
Last Quarter

Hourly Weather History & Observations

Time (CST) Temp. Windchill Dew Point Humidity Pressure Visibility Wind Dir Wind Speed Gust Speed Precip Events Conditions
12:53 AM 26.1 °F 20.5 °F 16.0 °F 66% 30.21 in 10.0 mi SSE 4.6 mph - N/A   Clear
1:53 AM 30.0 °F 22.4 °F 19.9 °F 66% 30.19 in - South 8.1 mph - N/A   Unknown
2:53 AM 30.0 °F 26.5 °F 19.9 °F 66% 30.19 in 10.0 mi Variable 3.5 mph - N/A   Unknown
3:53 AM 28.0 °F 19.3 °F 19.9 °F 72% 30.18 in 10.0 mi South 9.2 mph - N/A   Clear
4:53 AM 27.0 °F 23.0 °F 19.0 °F 72% 30.18 in 10.0 mi SSW 3.5 mph - N/A   Clear
5:53 AM 26.6 °F - 19.4 °F 74% 30.12 in 10.0 mi Calm Calm - N/A   Clear
6:53 AM 26.1 °F 16.2 °F 19.0 °F 75% 30.18 in 10.0 mi SE 10.4 mph - N/A   Clear
7:53 AM 26.1 °F 17.6 °F 19.9 °F 78% 30.19 in 10.0 mi SSE 8.1 mph - N/A   Clear
8:53 AM 32.0 °F 26.4 °F 23.0 °F 69% 30.19 in 10.0 mi SSE 5.8 mph - N/A   Clear
9:53 AM 39.9 °F 33.4 °F 26.1 °F 58% 30.18 in 10.0 mi South 10.4 mph - N/A   Clear
10:53 AM 48.0 °F - 25.0 °F 41% 30.14 in 10.0 mi South 19.6 mph 26.5 mph N/A   Clear
11:53 AM 52.0 °F - 25.0 °F 35% 30.11 in 10.0 mi South 18.4 mph 26.5 mph N/A   Clear
12:53 PM 54.0 °F - 23.0 °F 30% 30.06 in 10.0 mi South 23.0 mph 39.1 mph N/A   Clear
1:53 PM 55.0 °F - 24.1 °F 30% 30.02 in 10.0 mi South 31.1 mph 40.3 mph N/A   Mostly Cloudy
2:53 PM 54.0 °F - 23.0 °F 30% 30.00 in 10.0 mi South 27.6 mph 38.0 mph N/A   Partly Cloudy
3:53 PM 53.1 °F - 23.0 °F 31% 29.98 in 10.0 mi South 27.6 mph 35.7 mph N/A   Clear
4:53 PM 55.0 °F - 21.9 °F 28% 29.94 in 10.0 mi South 29.9 mph 38.0 mph N/A   Clear
5:53 PM 51.1 °F - 21.9 °F 32% 29.94 in 10.0 mi SSE 19.6 mph 28.8 mph N/A   Clear
6:53 PM 46.0 °F 38.8 °F 23.0 °F 40% 29.95 in 10.0 mi SSE 18.4 mph - N/A   Clear
7:53 PM 43.0 °F 35.1 °F 23.0 °F 45% 29.96 in 10.0 mi SSE 17.3 mph 24.2 mph N/A   Clear
8:53 PM 39.0 °F 33.4 °F 21.9 °F 50% 29.96 in 10.0 mi SSE 8.1 mph - N/A   Clear
9:53 PM 37.0 °F 28.9 °F 23.0 °F 57% 29.92 in 10.0 mi SE 12.7 mph - N/A   Clear
10:53 PM 36.0 °F 27.1 °F 21.9 °F 57% 29.89 in 10.0 mi SSE 13.8 mph 17.3 mph N/A   Clear
11:53 PM 37.0 °F 31.0 °F 19.9 °F 50% 29.87 in 10.0 mi SSE 8.1 mph - N/A   Clear